KINDAKUN POINT, BC current weather conditions

sailwx.info

Wind from 140 at 7 knots

Air temperature 9.0° C
Dewpoint 6.0° C

Last reported at 2014-Oct-31 19:00 UTC.
Time now 2014-Nov-01 05:38 UTC

Location: N 53°19' W 132°46'.
View on Google Maps.

See reports from other nearby stations

  
Tides and Currents Weather Stations Pressure Air Temp Water Temp Dewpoint Dewpoint Depression Visibility Wind Speed Wind Dir Waves Ship Positions
date/time (UTC)wind fromknots sea level pressurealtimeterstation pressurevisibilityair tempwater tempwave heightnotes
2014-Oct-31 19:00 140 7 9.0
2014-Oct-31 18:00 130 7 8.0
2014-Oct-31 17:00 130 5 8.0
2014-Oct-31 16:00 030 3 8.0
2014-Oct-31 15:00 110 4 7.0
2014-Oct-31 14:00 130 6 7.0
2014-Oct-31 13:00 120 5 7.0
2014-Oct-31 12:00 120 5 7.0
2014-Oct-31 11:00 120 5 7.0
2014-Oct-31 10:00 140 4 7.0
2014-Oct-31 09:00 130 5 7.0
2014-Oct-31 08:00 130 3 7.0
2014-Oct-31 07:00 030 3 8.0
2014-Oct-31 06:00 360 2 8.0
2014-Oct-31 05:00 050 1 8.0
2014-Oct-31 04:00 360 3 8.0
2014-Oct-31 03:00 060 3 8.0
2014-Oct-31 02:00 060 4 8.0
2014-Oct-31 01:00 110 2 8.0
2014-Oct-31 00:00 090 7 8.0
2014-Oct-30 23:00 070 6 8.0
2014-Oct-30 22:00 060 12 gusting 18 8.0
2014-Oct-30 21:00 020 19 8.0
2014-Oct-30 20:00 030 11 8.0
2014-Oct-30 19:00 030 11 8.0
2014-Oct-30 18:00 010 7 gusting 15 8.0
2014-Oct-30 17:00 010 12 9.0
2014-Oct-30 16:00 020 7 9.0
2014-Oct-30 15:00 010 10 9.0
2014-Oct-30 14:00 360 4 9.0
2014-Oct-30 13:00 360 10 9.0
2014-Oct-30 12:00 030 8 8.0
2014-Oct-30 11:00 360 6 8.0
2014-Oct-30 10:00 350 12 8.0
2014-Oct-30 09:00 190 8 9.0
2014-Oct-30 08:00 190 13 10.0
2014-Oct-30 07:00 220 8 gusting 16 9.0
2014-Oct-30 06:00 040 2 9.0
2014-Oct-30 05:00 170 12 9.0